STARLINK-37347, 68746

Orbit data source: Space-Track

STARLINK-37347, 68746 is a payload satellite owned by SpaceX/Seattle (US) in SSO that was launched on Wed, 15 Apr 2026 UTC via an FALCON 9 launch vehicle from the Air Force Western Test Range (AFWTR). Payload-class satellites include a variety of spacecraft equipped with specific instruments for various scientific and technological missions. These include communications satellites like Starlink; space stations such as the ISS; scientific satellites like the Hubble; Earth observation satellites from companies like Planet Labs, Umbra, and HawkEye 360; GPS; miniature CubeSats for education and research; and military/defense satellites.

Loading next visibility...
Identifier
68746, 2026-082U
Orbit
SSO
Country
Flag of USUS
Related business
Manufacturer
SpaceX/Seattle
Mission
Operational spacecraft
Bus & Motor
STARLINK V2MO, Unknown motor
Mass
575 kg wet, ~530 kg dry
Launch date (UTC)
2026-04-15 (2 months ago)
Launch vehicle
FALCON 9
Launch site
Air Force Western Test Range (AFWTR)
Object type
Payload
Rocket body
Debris
Shape & HBR
Unknown shape, 14.5 m
Radar Cross Section
Large (>1 m²)

Expand to show TLE details & history
Last TLE update: 13 hours ago

TLE from 13 hours ago
0 STARLINK-37347
1 68746U 26082U   26171.34306722  .00015347  00000-0  47658-3 0  9996
2 68746  97.2871  34.8166 0000426  35.8455 324.2816 15.33456475 10186
Epoch: 2026-06-20T08:14Z
TLE epoch observation values (Epoch: 2026-06-20T08:14:01.007Z)
Latitude
-0.00007°
Longitude
2.75336°
Altitude
468.384 km
Speed
7.632 km/s
True Right ascension
02h 19m 15s
True Declination
0° 00' 00"
Sunlit
Object was in daylight at epoch
Visualization orbit readout
Latitude
Unknown
Longitude
Unknown
Altitude
Unknown
Speed
Unknown
Apparent Right ascension
Unknown
Apparent Declination
Unknown
Sunlit
N/A
Visualization observer readout
Local Sidereal Time
08:33:31
Azimuth
Unknown
Elevation
Unknown
Doppler factor
Unknown
Orbital elements
Apogee altitude
462.743 km
Perigee altitude
462.16 km
Semi-major axis
6,840.589 km
Eccentricity
0.00004
Inclination
97.2871°
RAAN
34.8166°
Arg. of periapsis
35.8455°
True anomaly
324.27875°
Mean anomaly
324.2816°
Eccentric anomaly
324.28018°
Mean motion
3.83621 °/min
Orbital period
93.84 mins
BSTAR
0.00047658
Loading maneuver chart data...
Computing Atmospheric mass density...
Loading historical data...
Loading historical data...
Loading historical data...
Loading historical data...
Loading historical data...
Loading historical data...
Loading historical data...

Documentation

Showing up to 5 results
|